ONEWEB-0053 (45157 NORAD) Tracking and Keplerian Element Data

This shows tracking and keplerian element data for the satellite.

Feedback or suggestion? Click here.




ElementValue
Catalog45157
NameONEWEB-0053
Epoch Orbit820
Epoch Day86.91771395
Epoch Year2020
RAAN147.7286
Inclination87.425
Eccentricity0.0022855
Argument of Perigee126.1393
Mean Anonmoly234.1953
Mean Motion14.86866978
Decay Rate-0.00228115
L11 45157U 20008AC 20086.91771395 -.00228115 00000-0 -26311-1 0 9995
L22 45157 87.4250 147.7286 0022855 126.1393 234.1953 14.86866978 8202

Live tracking and technical data element details for ONEWEB-0053 (NORAD 45157). ONEWEB-0053 can be tracked NOW for your location showing map with azimuth and elevation plus other details from your city location.

Track the satellite on the map from your city or location and see movement details for azimuth, elevation, latitude, longitude, range, height, and movement on the map or in text.







IsCatalogInMostPopularTable: catalog: 45157, numindb: 9
Update: records affected: 1



GetName: 45157 ONEWEB-0053

Hit Count: updated at: Sat, 28 Mar 2020 20:33:04 GMT